Location: Pasarilla del Rebollar
(40.6790°N, 5.0062°W)
Time: 11:56:27
(UTC+00:00)

Cosmos 1980 Rocket - Pass Details

Date: 22 April 2026
Orbit: 826 x 850 km, 71.0° (Epoch: 16 May)

Event Time Altitude Azimuth Distance (km) Brightness Sun altitude
Rises 00:18:17 0° 342° (NNW) 3,422 6.2 -37.2°
Reaches altitude 10° 00:20:55 10° 350° (N) 2,484 5.4 -37.2°
Enters shadow 00:24:28 31° 20° (NNE) 1,441 3.8 -37.2°
